This is the latest recevied weather packets stored in our database for station/object K7CTM. If no packets are shown the sender has not sent any weather packets the latest 10 day(s).
| Time | Temp. | Humidity | Pressure | Rain* | Wind** | Luminosity | Snow |
|---|---|---|---|---|---|---|---|
| 1778225104 | 7.22° C | 89% | 1024.6 hPa | 0 mm | - | 0 W/m² | - |
| 1778224802 | 7.22° C | 88% | 1024.7 hPa | 0 mm | - | 0 W/m² | - |
| 1778224500 | 7.22° C | 87% | 1024.7 hPa | 0 mm | - | 0 W/m² | - |
| 1778224197 | 7.78° C | 87% | 1024.7 hPa | 0 mm | - | 0 W/m² | - |
| 1778223895 | 7.78° C | 87% | 1024.8 hPa | 0 mm | - | 0 W/m² | - |
| 1778223593 | 7.22° C | 89% | 1024.7 hPa | 0 mm | - | 0 W/m² | - |
| 1778223290 | 7.78° C | 88% | 1024.6 hPa | 0 mm | - | 0 W/m² | - |
| 1778222988 | 7.78° C | 87% | 1024.5 hPa | 0 mm | - | 0 W/m² | - |
| 1778222686 | 8.33° C | 86% | 1024.6 hPa | 0 mm | - | 0 W/m² | - |
| 1778222383 | 8.33° C | 86% | 1024.5 hPa | 0 mm | - | 0 W/m² | - |
| 1778222080 | 8.33° C | 85% | 1024.5 hPa | 0 mm | - | 0 W/m² | - |
| 1778221778 | 8.33° C | 86% | 1024.5 hPa | 0 mm | - | 0 W/m² | - |
| 1778221475 | 8.33° C | 86% | 1024.4 hPa | 0 mm | - | 0 W/m² | - |
| 1778221172 | 8.89° C | 85% | 1024.5 hPa | 0 mm | - | 0 W/m² | - |
| 1778220870 | 8.89° C | 84% | 1024.6 hPa | 0 mm | - | 0 W/m² | - |
| 1778220565 | 8.33° C | 87% | 1024.6 hPa | 0 mm | - | 0 W/m² | - |
| 1778220263 | 8.89° C | 86% | 1024.6 hPa | 0 mm | - | 0 W/m² | - |
| 1778219959 | 8.89° C | 85% | 1024.5 hPa | 0 mm | - | 0 W/m² | - |
| 1778219656 | 8.89° C | 84% | 1024.6 hPa | 0 mm | - | 0 W/m² | - |
| 1778219352 | 8.89° C | 84% | 1024.6 hPa | 0 mm | - | 0 W/m² | - |
| 1778219050 | 8.33° C | 88% | 1024.5 hPa | 0 mm | - | 0 W/m² | - |
| 1778218747 | 8.33° C | 88% | 1024.5 hPa | 0 mm | - | 0 W/m² | - |
| 1778218444 | 8.33° C | 88% | 1024.8 hPa | 0 mm | - | 0 W/m² | - |
| 1778218141 | 8.89° C | 87% | 1024.5 hPa | 0 mm | - | 0 W/m² | - |
| 1778217839 | 8.89° C | 85% | 1024.8 hPa | 0 mm | - | 0 W/m² | - |
* Rain latest hour (hover to see other rain measurements)
** Current wind speed in m/s (hover to see current wind gust speed)